Regional Weather Roundup
Issued by NWS

Home | Current Version | Previous Version | Text Only | Print | Product List | Glossary Off
Versions: 1 2 3 4 5 6 7 8 9 10 11 12 13 14 15 16 17 18 19 20 21 22 23 24 25 26 27 28 29 30 31 32 33 34 35 36 37 38 39 40 41 42 43 44 45 46 47 48 49 50

360
ASUS43 KLOT 230909
RWRIL

ILLINOIS REGIONAL WEATHER ROUNDUP
NATIONAL WEATHER SERVICE CHICAGO/ROMEOVILLE IL
400 AM CDT TUE MAY 23 2017

NOTE: "FAIR" INDICATES FEW OR NO CLOUDS BELOW 12,000 FEET WITH NO
SIGNIFICANT WEATHER AND/OR OBSTRUCTIONS TO VISIBILITY.

* THESE STATIONS ARE NOT UNDER NWS QUALITY CONTROL. THEY ALSO MAY NOT
  REPORT WEATHER SUCH AS PRECIPITATION OR FOG.

ILZ001-002-007-009-015-016-024-231000-
NORTHWEST ILLINOIS

CITY           SKY/WX    TMP DP  RH WIND       PRES   REMARKS
MOLINE         CLOUDY    56  51  84 SW8       29.80F
STERLING*      PTCLDY    55  53  93 VRB5      29.81F
SAVANNA*       CLOUDY    56  52  84 SW12      29.79F
$$

ILZ003-004-008-010-011-017-018-231000-
NORTH CENTRAL ILLINOIS

CITY           SKY/WX    TMP DP  RH WIND       PRES   REMARKS
ROCKFORD       CLOUDY    57  53  86 S8        29.81F
FREEPORT*      PTCLDY    54  52  94 S10       29.80F
ROCHELLE*      PTCLDY    52  51  97 S7        29.82F
DE KALB*       MOCLDY    53  52  97 S6        29.83S
PERU*          CLOUDY    57  52  83 SW10      29.83F
$$

ILZ005-006-012>014-019>023-231000-
NORTHEAST ILLINOIS

CITY           SKY/WX    TMP DP  RH WIND       PRES   REMARKS
CHICAGO-OHARE  CLOUDY    59  53  80 SW7       29.82F
CHICAGO-MIDWAY CLOUDY    60  54  80 S9        29.83F
AURORA         CLOUDY    58  54  86 S8        29.83S
LANSING*       CLOUDY    59  55  86 SW10      29.85F
WAUKEGAN       CLOUDY    58  54  86 SW9       29.81S
DUPAGE AIRPORT CLOUDY    58  55  90 S9        29.82S
KANKAKEE*      CLOUDY    58  53  83 CALM      29.86F
WHEELING       CLOUDY    58  55  90 SW6       29.83S
MORRIS*        CLOUDY    58  53  83 SW3       29.83S
ROMEOVILLE*    CLOUDY    58  56  91 SW13      29.84S
NORTHERLY ISL    N/A     60  52  74 S10         N/A
$$

LMZ740>746-231000-
SOUTHERN LAKE MICHIGAN

STATION/POSITION SKY/WX   TEMP    WIND        PRES    VSBY  WAVE
                          AIR SEA DIR/SP/G                  HT/PER
                          (F)     (DEG/KT/KT) (MB)    (MI)  (FT/S)
SOUTHERN BUOY              49 45  200/  8/ 10 1010.5          1/ 4
WILMETTE HARBOR            57 54                N/A           1/ 2
HARRISON CRIB              61     200/ 18/ 19   N/A
BURNHAM HARBOR             60     210/  6/ 12   N/A
CALUMET HARBOR             61     190/  7/ 12 1009.9F
BURNS HARBOR               60     190/ 11/ 13 1011.2F
MICHIGAN CITY              60     170/ 11/ 13   N/A
MICHIGAN CITY 6N           57 53  190/  8/ 10   N/A           1/ 3
ST. JOSEPH                 58 55  220/ 10/ 12 1010.9          2/ 4
$$

ILZ025>027-034>036-040-047-049-050-058-095>099-231000-
WEST-CENTRAL ILLINOIS

CITY           SKY/WX    TMP DP  RH WIND       PRES   REMARKS
QUINCY         LGT RAIN  56  55  97 S6        29.86F
GALESBURG*     CLOUDY    56  53  91 SW9       29.83R
MACOMB*        RAIN      56  55  96 SW9       29.86F
JACKSONVILLE*  LGT RAIN  56  55  95 CALM      29.88R
PITTSFIELD*    LGT RAIN  57  56  98 NW3       29.88S
$$

ILZ028>032-037-038-041>044-048-051>054-059>061-231000-
CENTRAL ILLINOIS

CITY           SKY/WX    TMP DP  RH WIND       PRES   REMARKS
PONTIAC        CLOUDY    58  56  92 W6        29.85F
BLOOMINGTON    CLOUDY    56  54  93 S8        29.86F
DECATUR        CLOUDY    57  55  93 E5        29.86F
PEORIA         LGT RAIN  56  56 100 SW6       29.85S
LACON*         LGT RAIN  58  55  88 SW5       29.83S
LINCOLN*       CLOUDY    58  57  99 CALM      29.85F
SPRINGFIELD    CLOUDY    58  57  97 SE5       29.86F
TAYLORVILLE    CLOUDY    57  54  90 E5        29.87S
$$

ILZ033-039-045-046-055>057-062-063-231000-
EAST-CENTRAL ILLINOIS

CITY           SKY/WX    TMP DP  RH WIND       PRES   REMARKS
CHAMPAIGN      CLOUDY    58  54  86 CALM      29.88S
RANTOUL*       CLOUDY    60  56  88 CALM      29.87F
MATTOON        CLOUDY    59  56  89 N6        29.87F
PARIS*         CLOUDY    58  52  81 CALM      29.88F
$$

ILZ079-100>102-231000-
SOUTHWEST ILLINOIS

CITY           SKY/WX    TMP DP  RH WIND       PRES   REMARKS
ALTON          MOCLDY    59  56  91 E3        29.86F
BELLEVILLE     CLOUDY    59  55  85 CALM      29.86F
CAHOKIA*       CLOUDY    61  54  77 CALM      29.85F
SPARTA*        CLOUDY    60  54  81 CALM      29.86F
$$

ILZ064>066-069>071-074>076-080>082-084>086-088>090-092>094-231000-
SOUTH-CENTRAL ILLINOIS

CITY           SKY/WX    TMP DP  RH WIND       PRES   REMARKS
CARBONDALE     CLOUDY    57  55  93 CALM      29.85F
CAIRO*         CLOUDY    58  55  91 NW3       29.85S
EFFINGHAM*     CLOUDY    58  57  97 E5        29.88F
MARION         CLOUDY    59  57  94 CALM      29.86F
MT. VERNON       N/A     58  53  84 CALM      29.86F
CENTRALIA*     CLOUDY    62  55  77 SE3       29.85S
SALEM*         MOCLDY    63  51  65 CALM      29.86S
METROPOLIS*    PTCLDY    55  54  95 CALM      29.85F
$$

ILZ067-068-072-073-078-083-087-091-231000-
SOUTHEAST ILLINOIS

CITY           SKY/WX    TMP DP  RH WIND       PRES   REMARKS
LAWRENCEVILLE  CLOUDY    59  54  83 E6        29.87F
FLORA*         MOCLDY    61  55  80 CALM      29.86F
FAIRFIELD*     CLOUDY    60  55  82 CALM      29.85F
HARRISBURG*    CLOUDY    58  56  93 CALM      29.86F
ROBINSON*      PTCLDY    59  53  81 CALM      29.88F
CARMI*         CLOUDY    59  55  88 CALM      29.86F
$$

ABBREVIATIONS USED IN REMARKS
   TC - TEMPERATURE IN CELSIUS
  WCI - WIND CHILL INDEX
   HX - HEAT INDEX
  VSB - VISIBILITY
$$





USA.gov is the U.S. government's official web portal to all federal, state and local government web resources and services.